Weather observations for the past three days for
Santa Rosa, Santa Rosa Sonoma County Airport
Imperial (Metric)
Date Time (pdt) Wind (mph) Vis. (mi.) Weather Sky Cond. Temperature (ºF) Relative Humidity Wind Chill (°F) Heat Index (°F) Pressure Precipitation (in)
Air Dwpt 6 hour altimeter (in) sea level (mb) 1 hr 3 hr 6 hr
Max. Min.
05 16:53 SW 10 10.00 Mostly Cloudy BKN030 64.9 52 66 60.1 63% 29.96 1014.0
05 15:53 S 7 10.00 Overcast OVC030 66 53.1 63% 29.97 1014.1
05 14:53 S 5 10.00 Overcast OVC028 64.9 53.1 66% 29.98 1014.5
05 13:53 Calm 10.00 Overcast OVC028 63 51.1 65% 29.99 1014.9
05 12:53 S 6 10.00 Overcast OVC024 62.1 52 70% 29.99 1015.1
05 11:53 Vrbl 5 10.00 Overcast OVC025 61 51.1 70% 29.99 1015.1
05 10:53 SW 3 10.00 Overcast OVC020 60.1 50 60.1 52 70% 29.99 1015.0
05 09:53 Calm 10.00 Mostly Cloudy SCT018 BKN024 57.9 51.1 78% 29.99 1014.8
05 08:53 W 5 10.00 Mostly Cloudy SCT013 BKN028 BKN060 57.9 51.1 78% 29.98 1014.5
05 07:53 W 6 10.00 Mostly Cloudy FEW007 SCT030 BKN060 54 51.1 90% 29.97 1014.2
05 06:53 Calm 10.00 Mostly Cloudy FEW007 SCT020 BKN055 53.1 51.1 93% 29.96 1013.9
05 05:53 W 3 10.00 Overcast BKN055 OVC075 53.1 51.1 93% 29.95 1013.4
05 04:53 W 6 10.00 Overcast OVC060 53.1 51.1 53.1 53.1 93% 29.95 1013.5
05 03:53 S 3 10.00 Overcast OVC048 53.1 51.1 93% 29.96 1013.7 0.01
05 02:53 S 5 10.00 Overcast OVC050 53.1 51.1 93% 29.95 1013.6 0.01
05 01:53 S 3 10.00 Light Rain OVC055 53.1 51.1 93% 29.97 1014.2
05 00:53 S 3 10.00 Overcast OVC060 53.1 51.1 93% 29.98 1014.5 0.02
04 23:53 Calm 10.00 Light Rain OVC060 53.1 52 96% 29.98 1014.5
04 22:53 S 5 10.00 Overcast SCT050 BKN070 OVC085 53.1 52 55 53.1 96% 29.98 1014.4 0.11
04 21:53 S 6 10.00 Light Rain FEW011 BKN070 OVC080 53.1 52 96% 30 1015.1
04 20:53 SE 7 10.00 Overcast OVC070 53.1 52 96% 29.98 1014.6 0.01
04 19:53 S 5 9.00 Overcast OVC075 54 52 93% 29.96 1013.9 0.03 0.1
04 18:53 S 5 5.00 Rain Fog/Mist SCT030 OVC080 54 52 93% 29.98 1014.6 0.04
04 17:53 S 6 8.00 Light Rain BKN029 OVC080 55 53.1 93% 29.98 1014.7 0.03
04 16:53 S 3 7.00 Light Rain SCT020 OVC080 55 52 66.9 55 90% 29.98 1014.6 0.03 0.09
04 15:53 SW 7 7.00 Light Rain SCT020 OVC080 55.9 52 87% 29.98 1014.7 0.05
04 14:53 W 9 8.00 Light Rain SCT040 OVC090 57.9 51.1 78% 29.97 1014.2 0.01
04 13:53 SW 8 10.00 Mostly Cloudy BKN040 63 48.9 60% 29.97 1014.4
04 12:53 S 9 10.00 Mostly Cloudy BKN043 64 48.9 58% 29.97 1014.3
04 11:53 Vrbl 6 10.00 Mostly Cloudy BKN035 66 48.9 54% 29.97 1014.3
04 10:53 Vrbl 3 10.00 Partly Cloudy FEW012 SCT028 62.1 48.9 62.1 46.9 62% 29.98 1014.6
04 09:53 S 3 10.00 Partly Cloudy FEW008 SCT025 59 50 72% 29.98 1014.5
04 08:53 Calm 10.00 Partly Cloudy FEW008 SCT025 51.1 50 96% 29.98 1014.7
04 07:53 S 3 0.50 Fog VV002 48.9 48 97% 29.98 1014.5
04 06:53 Calm 0.50 Fog VV002 48 48 100% 29.98 1014.5
04 05:53 Calm 0.25 Fog VV001 46.9 46.9 100% 29.97 1014.1
04 04:53 Calm 10.00 Overcast OVC003 48 46.9 54 46.9 96% 29.96 1013.9
04 03:53 Calm 10.00 Overcast OVC044 48.9 48 97% 29.95 1013.7
04 02:53 SE 3 10.00 Fair CLR 48 46.9 96% 29.95 1013.6
04 01:53 SE 5 10.00 Fair CLR 50 48 93% 49 29.95 1013.7
04 00:53 SE 5 10.00 Fair CLR 50 48 93% 49 29.96 1013.9
03 23:53 SE 3 10.00 Mostly Cloudy BKN050 52 48.9 89% 29.96 1013.9
03 22:53 S 5 10.00 Overcast FEW042 OVC055 54 50 64 54 87% 29.97 1014.2
03 21:53 S 5 10.00 Overcast OVC050 55 48.9 80% 29.95 1013.6
03 20:53 Calm 10.00 Mostly Cloudy BKN055 54 48.9 83% 29.93 1013.0
03 19:53 SW 5 10.00 A Few Clouds FEW055 57 48 72% 29.92 1012.5
03 18:53 SW 6 10.00 Partly Cloudy SCT035 60.1 48 65% 29.91 1012.2
03 17:53 S 9 10.00 Mostly Cloudy BKN043 62.1 50 65% 29.91 1012.1
03 16:53 SW 6 10.00 Mostly Cloudy BKN035 63 48 64.9 57 58% 29.9 1012.0
03 15:53 SW 8 10.00 Mostly Cloudy BKN038 62.1 46.9 58% 29.89 1011.7
03 14:53 S 7 10.00 Mostly Cloudy BKN036 63 46.9 56% 29.9 1012.0
03 13:53 Calm 10.00 Mostly Cloudy BKN030 61 46.9 60% 29.9 1012.0
03 12:53 Calm 10.00 Overcast SCT023 OVC034 60.1 46.9 62% 29.92 1012.4
03 11:53 Calm 10.00 Overcast SCT023 OVC034 59 46 62% 29.92 1012.4
03 10:53 SW 6 10.00 Overcast SCT018 OVC022 57 46.9 57 53.1 69% 29.92 1012.6
03 09:53 SW 7 10.00 Overcast BKN020 OVC027 55.9 46.9 72% 29.91 1012.3
03 08:53 S 5 10.00 Overcast FEW013 OVC025 55 48.9 80% 29.9 1012.0
03 07:53 S 5 9.00 Overcast OVC020 54 50 87% 29.89 1011.4
03 06:53 SE 5 10.00 Overcast OVC016 54 50 87% 29.86 1010.6
03 05:53 S 5 10.00 Overcast OVC017 53.1 50 89% 29.85 1010.2
03 04:53 SE 5 9.00 Overcast OVC016 53.1 51.1 54 53.1 93% 29.84 1010.0
03 03:53 SE 5 8.00 Overcast OVC013 53.1 51.1 93% 29.85 1010.1
03 02:53 SE 3 9.00 Overcast OVC012 53.1 50 89% 29.85 1010.2
03 01:53 S 6 9.00 Overcast OVC012 54 50 87% 29.86 1010.6
03 00:53 S 5 10.00 Overcast OVC014 54 48.9 83% 29.87 1010.9
02 23:53 S 3 10.00 Overcast OVC015 54 48.9 83% 29.88 1011.1
02 22:53 SE 5 10.00 Overcast OVC014 54 48.9 60.1 54 83% 29.89 1011.4
02 21:53 SE 6 10.00 Overcast OVC015 55 48.9 80% 29.89 1011.4
02 20:53 SE 6 10.00 Overcast OVC018 55 48.9 80% 29.87 1010.9
02 19:53 SE 6 10.00 Overcast OVC020 55.9 48.9 77% 29.86 1010.5
02 18:53 SE 8 10.00 Overcast OVC021 57 48.9 74% 29.86 1010.6
02 17:53 S 7 10.00 Mostly Cloudy BKN025 60.1 48.9 67% 29.87 1010.7
Date Time (pdt) Wind (mph) Vis. (mi.) Weather Sky Cond. Air Dwpt Max. Min. Relative Humidity Wind Chill (°F) Heat Index (°F) altimeter (in) sea level (mb) 1 hr 3 hr 6 hr
6 hour
Temperature (ºF) Pressure Precipitation (in)